2020 UY1
ephemeris date magn radius delta ra dec elong phase
Today19 Oct 202528.81.117 AU1.785 AU15h37m-28°59'34.5°30.3°
2020 UY1 - 2025-10-19
astro.vanbuitenen.nl


 
-1 year
-1 month
-1 day
Now
+1 day
+1 month
+1 year

The interactive orbit chart above shows the body's path through the solar system and its position at the given date. Green and blue lines are shown perpendicular to the ecliptic plane: Green if the path is above the ecliptic plane, blue if it is below. (Left-click and drag to rotate the view; Right-click and drag to move the view; Use scroll wheel to zoom in our out.)

The orbital elements of 2020 UY1 are:

            e (Eccentricity)                : 0.0891990
            a (Semimajor axis)              : 1.0518526
            i (Inclination)                 : 16.81731
            Ω (Longitude of ascending node) : 26.85798
            ω (Argument of perihelion)      : 106.25548
            M (Mean anomaly)                : 337.43591
            Epoch                           : 2025 May 05

            L (Longitude of perihelion)     : -46.20105
            B (Latitude of perihelion)      : 16.12625
            P (Orbital period in years)     : 1.08            
        

The light curve chart below shows the estimated development of the minor planet's magnitude.


The all-sky chart below shows the path of the minor planet over the same period as the light curve. The current position is marked yellow.





The following chart shows the path of the minor planet in the next few days. The field of view is optimized for (~10x50) binoculars and finderscopes.




Ephemerides:
Date       Time       RA (2000)    DEC (2000)    delta   radius  elong  phase   PA    magn
2025-10-19 00:00 UT   15 37 16.3   -28 59 25     1.785    1.117   34.5   30.3   117   28.8 
2025-10-19 09:46 UT   15 38 53.1   -29 06 06     1.786    1.117   34.5   30.3   117   28.8 
2025-10-20 00:00 UT   15 41 14.5   -29 15 42     1.787    1.118   34.4   30.3   117   28.8 
2025-10-21 00:00 UT   15 45 13.7   -29 31 33     1.789    1.119   34.4   30.2   117   28.8 
2025-10-22 00:00 UT   15 49 14.1   -29 46 57     1.791    1.120   34.3   30.1   117   28.8 
2025-10-23 00:00 UT   15 53 15.5   -30 01 55     1.793    1.121   34.3   30.0   117   28.8 
2025-10-24 00:00 UT   15 57 18.0   -30 16 26     1.795    1.122   34.2   29.9   116   28.8 
2025-10-25 00:00 UT   16 01 21.5   -30 30 29     1.797    1.123   34.1   29.8   116   28.8 
2025-10-26 00:00 UT   16 05 26.0   -30 44 04     1.799    1.123   34.1   29.7   116   28.8 
2025-10-27 00:00 UT   16 09 31.5   -30 57 12     1.801    1.124   34.0   29.6   116   28.8 
2025-10-28 00:00 UT   16 13 38.0   -31 09 51     1.803    1.125   33.9   29.5   115   28.8 


    Terminology:
            
    delta:  distance between minor planet and earth in AU
    radius: distance between minor planet and sun in AU
    magn:   magnitude (brightness) estimate    
    ra:     right ascension in hours (24h = 360deg)
    dec:    declination in degrees
    elong:  elongation in degrees (angle sun-earth-minor planet)    
    phase:  phase angle in degrees (angle sun-minor planet-earth)        
    AU:     Astronomical Unit (mean distance between earth and sun: 149597870.7 km
    

Orbital elements provided by the MPC (Minor Planet Center).
Calculations by a modified version of AAPlus, a C# implementation of the AA+ project by PJ Naughter from the algorithms presented in the book "Astronomical Algorithms" by Jean Meeus.
NGC2000 dso catalog and star labels from VizieR as provided by the Strasbourg astronomical Data Center.
Tycho2 catalog from the ESO archive.